Location: Castel d�Ario
(45.1833°N, 10.9667°E)
Time: 06:25:03
(UTC+00:00)

Daily predictions for brighter satellites

Satellite Brightness Start Highest point End
(mag) Time Altitude Azimuth Time Altitude Azimuth Time Altitude Azimuth
Lacrosse 5 3.5 16:34:32 10° WNW 16:38:39 24° NNW 16:42:48 10° NE
Timation 2 Rocket 4.2 16:34:00 10° NNW 16:40:30 58° ENE 16:47:12 10° SE
Cosmos 1825 Rocket 3.6 16:37:01 10° N 16:41:27 63° E 16:45:49 10° SSE
Envisat 3.6 16:37:21 10° S 16:42:22 63° W 16:47:26 10° NNW
Cosmos 292 Rocket 4.0 16:37:50 10° S 16:42:27 50° ESE 16:47:07 10° NNE
Aureole 3 4.1 16:40:52 10° SE 16:43:11 19° E 16:45:23 10° NE
ADEOS Rocket 3.6 16:37:56 10° N 16:44:20 74° WNW 16:51:27 10° SSW
Okean O Rocket 1.7 16:40:07 10° SSE 16:44:30 87° WSW 16:48:53 10° NNW
Meteor 2-21 Rocket 4.5 16:40:11 10° N 16:46:20 62° ENE 16:52:22 10° SSE
YAOGAN 1 4.0 16:43:44 10° ESE 16:46:39 18° ENE 16:49:33 10° NNE
USA 281 3.4 16:40:43 10° SSE 16:47:17 85° WSW 16:53:54 10° NNW
FALCON 9 DEB 3.1 16:44:38 10° SW 16:47:50 61° SE 16:51:01 10° ENE
FALCON 9 DEB 2.9 16:48:54 10° SW 16:52:05 71° SE 16:55:10 11° ENE
Feng Yun 1-1 Rocket 4.5 16:47:03 10° SSE 16:52:48 58° ENE 16:58:37 10° N
CZ-2C R/B 4.2 16:48:11 10° ESE 16:52:53 27° ENE 16:57:29 10° N
SMAP 3.4 16:48:44 10° S 16:53:22 71° WSW 16:58:02 10° NNW
Meteor 2-14 Rocket 4.5 16:48:40 10° N 16:54:51 86° E 17:00:58 10° S
Cosmos 1455 4.0 16:54:10 10° ESE 16:55:33 12° E 16:56:10 11° ENE
Cosmos 2219 3.5 16:50:12 10° NNW 16:55:46 48° ENE 17:01:19 10° SE
Cosmos 1726 Rocket 3.6 16:52:10 10° S 16:56:26 60° E 17:00:46 10° NNE
Cosmos 1553 Rocket 4.5 16:53:38 10° SSE 16:59:23 37° E 17:05:05 10° NNE
Cosmos 1758 Rocket 4.2 16:55:51 10° NNW 17:00:13 62° W 17:04:30 10° S
USA 307 4.0 16:57:41 10° NW 17:01:32 31° NNE 17:04:41 14° ENE
Cosmos 2228 3.0 16:59:16 10° S 17:03:30 84° WNW 17:07:48 10° N
FALCON 9 DEB 2.9 17:00:50 10° SW 17:04:04 85° SSE 17:06:44 14° ENE
Cosmos 1939 Rocket 3.0 17:00:32 10° SSE 17:04:22 48° ENE 17:08:09 10° N
CZ-4B R/B 1.4 17:02:56 10° N 17:06:09 77° WNW 17:09:17 10° SSW
USA 308 3.9 17:02:32 10° NW 17:06:25 32° NNE 17:09:20 15° ENE
ATLAS 5 CENTAUR R/B 4.2 17:06:00 10° NW 17:08:06 13° NNW 17:10:21 10° N
Helios 1A Rocket 3.3 17:07:41 10° SE 17:11:33 41° ENE 17:15:25 10° N
Cosmos 1606 Rocket 3.8 17:07:42 10° SSW 17:12:03 73° W 17:16:28 10° N
FALCON 9 DEB 3.0 17:12:31 10° WSW 17:15:44 73° NNW 17:17:56 18° NE
ARGOS 4.3 17:13:10 13° ESE 17:16:26 22° ENE 17:20:32 10° NNE
Okean-O 2.9 17:13:48 10° SE 17:18:00 44° ENE 17:22:13 10° N
SKYMED 2 3.5 17:16:02 10° NNE 17:20:22 65° ESE 17:24:41 10° S
Cosmos 1656 3.8 17:15:41 10° S 17:21:05 55° ESE 17:26:35 10° NNE
Cosmos 1689 Rocket 1.9 17:18:42 10° NNE 17:21:35 60° ESE 17:24:25 10° S
SL-08 R/B 4.5 17:16:23 10° N 17:22:29 58° ENE 17:28:28 10° SSE
Cosmos 1400 Rocket 2.8 17:19:41 10° S 17:23:47 74° E 17:27:53 10° NNE
Cosmos 1745 Rocket 4.3 17:19:37 10° N 17:25:39 45° ENE 17:31:41 10° SSE
H-2A R/B 2.8 17:21:03 10° SE 17:25:52 34° ENE 17:30:43 10° N
GEOS 3 Rocket 4.3 17:24:33 18° E 17:27:56 38° NE 17:32:54 10° NNW
CZ-4 R/B 1.4 17:24:35 10° SSE 17:28:20 48° ENE 17:32:04 10° N
PSLV R/B 3.9 17:24:30 10° NNE 17:28:39 65° ESE 17:32:45 10° S
Cosmos 2227 Rocket 2.2 17:24:08 10° NNW 17:29:48 65° ENE 17:35:24 10° SE
Cosmos 2058 3.3 17:26:30 10° N 17:30:21 37° ENE 17:34:10 10° SE
Cosmos 1892 2.8 17:27:54 10° N 17:31:43 53° E 17:35:31 10° SSE
Atlas Centaur 2 4.4 17:25:37 10° SW 17:32:05 25° SSE 17:37:32 13° ESE
CSL-04 Rocket 4.1 17:29:02 10° SE 17:34:08 40° ENE 17:39:15 10° N
Cosmos 2263 Rocket 3.8 17:31:28 10° N 17:34:58 16° NE 17:35:34 16° NE
BREEZE-M R/B 4.0 17:27:58 10° W 17:35:50 50° N 17:37:08 29° NE
Cosmos 1408 3.0 17:32:27 10° N 17:35:54 37° ENE 17:37:15 27° ESE
Meteor 2-1 Rocket 4.3 17:35:22 10° SSE 17:40:36 47° E 17:45:53 10° NNE
CZ-4C R/B 4.2 17:36:32 10° NNW 17:41:22 20° NNE 17:44:24 16° NE
Cosmos 1300 4.3 17:38:41 10° SW 17:42:14 37° WNW 17:45:49 10° N
Cosmos 2058 Rocket 3.5 17:40:59 10° SSW 17:45:26 66° W 17:49:57 10° N
Cosmos 1697 Rocket 2.9 17:40:21 10° S 17:45:40 46° ESE 17:49:37 18° NE
CZ-2D R/B 3.4 17:43:29 10° S 17:47:17 73° WSW 17:51:06 10° NNW
SeaSat 1 3.2 17:46:28 30° ENE 17:47:27 33° NE 17:51:50 10° N
SL-4 R/B 2.8 17:45:06 10° NW 17:48:23 32° N 17:49:04 29° NNE
NOSS 3-3 (A) 4.0 17:44:56 10° SSW 17:50:29 53° ESE 17:54:17 23° NE
NOSS 3-3 (C) 4.0 17:45:01 10° SSW 17:50:36 53° ESE 17:54:24 23° NE
Cosmos 1346 Rocket 2.7 17:46:41 10° N 17:50:40 66° ENE 17:54:07 13° SSE
USA 305 3.2 17:48:21 10° NW 17:52:33 49° NNE 17:53:27 41° ENE
CRYOSAT 2 4.4 17:47:54 10° NNE 17:52:41 53° E 17:57:24 10° SSE
Cosmos 1825 3.2 17:49:19 10° N 17:51:38 29° NNE 17:51:38 29° NNE
Cosmos 44 4.5 17:50:20 10° WSW 17:54:34 38° NW 17:59:04 10° NNE
USA 215 4.1 17:51:39 24° ENE 17:54:47 37° NNE 18:00:39 10° NW
Cosmos 1315 Rocket 2.8 17:51:06 10° S 17:54:57 55° E 17:56:19 35° NE
Cosmos 1709 Rocket 4.3 17:49:20 10° N 17:55:26 44° ENE 17:59:42 19° SE
SJ-11-01 4.2 17:53:43 18° SSE 17:57:02 58° ENE 18:01:38 10° N
USA 306 3.1 17:54:45 10° NW 17:58:58 53° NNE 17:59:35 48° ENE
BREEZE-M R/B 3.9 17:58:15 10° WNW 18:02:22 61° NNE 18:05:18 34° E
ATLAS 2AS CENTAUR R/B 3.6 17:56:28 10° NNW 18:03:16 34° NNE 18:05:17 29° ENE
Cosmos 968 Rocket 3.6 17:59:54 10° NNW 18:05:07 76° WSW 18:10:16 10° SSE
Cosmos 1340 4.2 18:01:56 10° NNW 18:05:26 37° W 18:08:56 10° SSW
COSMO-SKYMED 1 3.9 18:04:18 10° N 18:08:22 39° WNW 18:12:23 10° SW
Cosmos 1980 Rocket 2.8 18:03:15 10° S 18:07:19 35° SE 18:07:19 35° SE
MOS 1 Rocket 3.2 18:04:35 10° NNE 18:09:16 70° E 18:14:14 10° S
Cosmos 2297 Rocket 3.0 18:04:05 10° NW 18:09:35 52° WSW 18:15:02 10° S
Cosmos 883 Rocket 4.4 18:04:19 10° S 18:10:20 57° E 18:16:19 10° NNE
Cosmos 1076 Rocket 3.3 18:06:24 10° N 18:10:40 76° E 18:11:35 53° SSE
Cosmos 2315 Rocket 4.0 18:08:26 10° SSE 18:14:22 50° E 18:20:19 10° NNE
CSL-04 Debris 4.1 18:09:04 10° SSE 18:14:30 88° ENE 18:20:01 10° NNW
S3M 3.9 18:08:46 10° S 18:14:52 84° W 18:21:05 10° N
YAOGAN 1 3.4 18:18:10 10° S 18:22:21 50° W 18:26:36 10° NNW
Lacrosse 5 3.4 18:19:03 10° NW 18:23:04 23° N 18:23:30 23° NNE
Cosmos 2360 4.1 18:18:49 10° SSW 18:24:30 73° ESE 18:26:15 46° NE
Cosmos 1812 Rocket 3.6 18:25:26 10° SSW 18:29:50 77° W 18:30:36 58° NNW
Milstar 3 4.4 18:25:22 10° SW 18:30:04 20° S 18:31:53 18° SSE
Cosmos 1455 2.9 18:27:00 10° SSW 18:30:40 51° WNW 18:31:13 46° NW
CZ-2C R/B 4.0 18:26:45 10° S 18:32:25 53° W 18:37:57 10° NNW
Cosmos 1503 Rocket 4.2 18:30:15 10° NNW 18:35:27 70° WSW 18:37:12 42° S
Cosmos 44 Rocket 4.0 18:32:19 10° SSW 18:35:27 41° SSW 18:35:27 41° SSW
Cosmos 2278 3.8 18:32:08 10° SSW 18:36:45 57° SSE 18:36:45 57° SSE
USA 307 3.7 18:37:41 10° NW 18:40:52 49° WNW 18:40:52 49° WNW
USA 308 3.9 18:42:31 10° WNW 18:45:31 44° WNW 18:45:31 44° WNW
Cosmos 1354 Rocket 4.3 18:41:47 10° NNW 18:47:00 63° WSW 18:47:53 54° SSW
Cosmos 2082 4.2 18:43:05 10° NNW 18:48:41 56° WSW 18:50:45 36° SSW
ATLAS 5 CENTAUR R/B 4.5 18:54:34 10° N 18:55:00 10° N 18:55:00 10° N
ARGOS 3.6 18:54:41 42° SSW 18:56:16 59° W 19:01:39 10° NNW
Cosmos 2369 4.3 18:55:54 10° SW 19:01:31 55° WNW 19:03:10 41° N
CZ-4 R/B 4.4 19:01:35 10° WSW 19:03:38 14° W 19:05:41 10° WNW
Ariane Rocket 4.5 19:07:51 29° NNW 19:07:51 29° NNW 19:10:17 10° NNW
H-2A R/B 3.5 19:00:12 10° SSW 19:05:11 37° W 19:10:15 10° NNW
GEOS 3 Rocket 4.3 19:05:41 49° SW 19:05:50 49° WSW 19:11:04 10° NW
Cosmos 2263 Rocket 3.5 19:14:10 10° NNW 19:17:16 34° NNW 19:17:16 34° NNW
Atlas Centaur 2 4.2 19:13:53 10° WSW 19:20:08 28° SSW 19:20:08 28° SSW
SeaSat 1 4.0 19:26:16 33° WNW 19:26:16 33° WNW 19:29:32 10° NW
Cosmos 1697 Rocket 4.3 19:24:54 10° WSW 19:29:49 31° NW 19:31:25 26° NNW
CZ-4C R/B 3.6 19:24:44 10° NNW 19:29:36 41° N 19:29:36 41° N
NOSS 3-4 (A) 4.0 19:25:45 10° NW 19:31:39 66° NW 19:31:39 66° NW
NOSS 3-4 (C) 4.0 19:25:52 10° NW 19:31:43 66° NW 19:31:43 66° NW
USA 215 3.8 19:39:00 51° NW 19:39:00 51° NW 19:43:46 10° NW
Cosmos 1980 Rocket 4.3 19:47:12 10° WSW 19:49:11 20° WSW 19:49:11 20° WSW
ATLAS 2AS CENTAUR R/B 3.6 19:47:32 10° NW 19:52:43 47° NW 19:52:43 47° NW
